Temperature
22 19 19 19 20 21 21 21 20 21 21 21 19 19 19 20 20 19 19 19 19 19 19 19 19 19 18 18 18 17 17 17 17 17 16 16 16 16 16 16 16 16 16 16
19 19 20 21 21 21 21 20 20 21 21 21 19 19 19 19 19 20 19 19 19 19 19 19 19 19 18 18 18 18 17 17 17 16 16 16 16 16 16 16 16 16 16 16
19 20 22 22 21 21 21 20 20 20 21 20 20 19 18 19 19 19 19 19 19 19 19 19 19 18 18 18 18 17 17 17 17 16 16 16 16 16 16 15 15 15 16 16
19 21 22 21 21 21 20 21 21 21 19 18 19 17 17 18 18 18 18 18 19 19 19 19 18 18 18 18 17 17 17 17 17 16 16 16 16 16 16 16 15 15 15 15
20 21 21 21 21 22 21 22 21 21 19 18 18 17 17 17 17 17 17 18 18 19 19 18 18 18 18 18 17 17 17 17 16 16 16 16 16 16 16 15 15 15 15 15
20 21 21 21 22 22 21 20 19 17 17 17 18 17 17 16 17 17 18 18 18 18 18 18 18 18 18 17 17 17 17 17 16 16 16 16 16 16 15 15 15 15 15 15
19 20 21 21 21 21 20 17 17 17 16 16 18 17 17 17 18 18 18 18 18 18 18 18 18 17 17 17 17 17 17 17 16 16 16 16 16 15 15 15 15 15 15 15
18 18 20 20 20 19 19 17 16 17 17 17 17 17 17 18 19 19 18 18 18 18 18 18 18 17 17 17 17 17 17 16 16 16 16 16 16 15 15 15 15 15 15 15
17 18 20 21 21 20 19 17 17 16 17 17 16 17 18 18 17 17 17 17 18 18 18 18 17 17 17 17 17 17 16 16 16 16 16 16 15 15 15 15 15 15 15 15
17 17 19 20 20 20 20 18 16 16 17 16 17 17 16 17 17 17 16 17 17 18 18 17 17 17 17 17 16 16 16 16 16 16 16 15 15 15 15 15 15 15 15 15
16 16 17 18 18 18 19 18 16 15 15 15 16 16 17 17 16 16 16 17 17 17 17 17 17 17 17 17 16 16 16 16 16 16 16 15 15 15 15 15 15 15 15 15
15 14 15 16 18 18 18 17 16 15 15 15 14 15 17 17 17 17 17 17 17 17 17 17 17 17 17 16 16 16 16 16 16 16 15 15 15 15 15 15 15 15 15 15
15 14 14 15 16 17 17 18 17 15 14 14 14 15 17 16 16 17 17 17 17 17 17 17 17 16 16 16 16 16 16 15 15 15 15 15 15 15 15 15 15 15 15 15
15 13 14 15 15 15 16 17 17 15 14 14 14 15 16 15 15 16 17 17 17 17 17 16 16 16 16 16 16 15 15 15 15 15 15 15 15 15 15 15 15 15 14 14
13 13 14 14 15 16 16 16 17 16 15 14 15 15 15 15 15 16 16 16 16 16 16 16 16 16 16 15 15 15 15 15 15 15 15 15 15 14 14 14 14 14 14 14
12 13 14 14 15 16 15 16 16 16 16 15 15 15 15 15 15 15 15 15 15 15 15 15 15 15 15 15 15 15 15 15 14 14 14 14 14 14 14 14 14 14 14 14
11 12 12 12 14 15 14 15 15 15 15 15 14 15 14 14 14 15 15 15 14 14 14 14 14 14 14 15 15 14 14 14 14 14 14 14 14 14 14 14 14 14 14 14
11 11 10 11 13 13 14 15 15 15 15 15 15 14 14 15 15 15 15 14 14 14 14 14 14 14 14 14 14 14 14 14 14 14 14 14 13 13 13 13 13 13 13 13
11 11 10 10 12 12 14 15 15 15 14 14 14 14 14 14 14 14 14 14 14 14 14 14 14 14 14 14 14 14 14 13 13 13 13 13 13 13 13 13 13 13 13 13
11 10 10 10 12 12 13 15 16 15 13 14 14 14 14 14 11 12 14 14 14 14 13 13 13 13 13 13 13 13 13 13 13 13 13 13 13 13 13 13 13 13 13 13
11 10 10 10 11 11 13 14 15 13 13 14 14 14 14 13 12 13 13 13 13 13 13 13 13 13 12 12 12 12 12 12 12 12 12 13 13 13 13 13 13 13 13 13
11 10 10 9 10 11 13 13 13 12 14 14 14 14 13 13 13 13 13 13 13 13 12 12 12 12 12 12 12 12 12 12 12 12 12 12 12 12 12 12 12 12 12 12
10 10 10 10 11 12 13 13 14 14 13 13 13 13 13 13 13 13 12 12 12 12 12 12 12 11 11 11 11 11 11 11 11 11 12 12 12 12 12 12 12 12 12 11
10 11 10 10 11 12 13 13 13 13 13 13 13 13 13 12 12 12 12 12 12 12 11 11 11 11 11 11 11 11 11 11 11 11 11 11 11 11 11 11 11 11 11 11
9 10 10 10 10 11 12 13 13 13 13 12 12 12 12 12 12 12 11 11 11 11 11 11 10 10 10 10 10 10 10 10 10 10 10 10 11 11 11 11 11 11 11 11
9 9 9 9 11 10 11 12 12 12 12 12 12 12 12 12 11 11 11 11 10 10 10 10 10 10 10 10 10 10 10 10 10 10 10 10 10 10 10 10 10 10 10 10
Wind_Speed
1 3 2 6 7 6 4 2 3 4 4 4 6 5 5 5 6 6 6 6 6 5 4 4 4 6 6 5 5 5 4 3 3 2 2 2 1 1 1 2 5 6 7 9
3 3 8 5 4 3 2 1 1 2 1 3 4 4 4 4 7 8 8 7 7 5 3 3 5 5 5 5 5 5 4 3 3 2 2 2 2 1 1 2 3 5 7 8
6 6 4 3 2 2 2 3 3 3 1 1 2 2 1 2 2 4 5 7 7 8 7 6 5 5 5 5 5 5 4 3 3 3 3 3 3 2 2 1 1 2 5 6
3 5 2 2 2 2 3 4 3 3 2 3 2 3 5 4 2 3 4 5 6 6 7 6 5 4 4 4 4 4 4 4 3 4 4 4 3 2 2 2 1 1 3 5
2 1 1 2 3 3 5 4 3 3 2 1 1 3 5 3 4 6 6 6 7 7 7 7 5 5 4 4 4 3 3 3 3 3 4 4 2 2 1 1 2 1 1 3
3 2 2 3 2 1 1 3 4 4 4 2 5 5 4 5 8 7 6 6 6 6 6 6 5 4 3 3 4 4 4 3 3 3 3 4 4 3 2 1 2 2 1 1
4 4 3 1 1 4 5 5 3 3 2 5 2 3 5 5 6 8 9 8 7 7 6 5 4 4 3 3 3 4 4 3 2 3 2 3 4 4 4 3 3 2 2 2
1 4 4 1 3 3 2 7 6 4 4 4 3 2 4 2 4 6 7 7 7 6 6 5 5 5 4 3 3 4 4 3 3 3 2 2 3 3 3 3 3 3 3 3
2 4 4 2 1 4 2 3 6 5 2 1 2 1 2 3 5 5 6 6 6 5 5 5 5 5 4 4 3 4 4 4 4 4 3 2 2 3 3 3 3 3 3 2
3 3 4 3 3 2 4 4 4 3 2 3 2 3 4 4 4 4 5 5 4 5 5 5 4 4 4 4 3 3 3 4 3 3 3 3 3 3 3 3 3 3 3 3
2 1 4 3 0 2 1 1 3 3 4 4 3 5 4 8 7 7 6 5 5 5 5 5 4 4 4 3 3 2 2 3 3 3 3 3 3 3 3 3 4 4 3 3
2 3 1 4 4 2 3 3 4 3 3 3 3 5 3 6 5 5 5 4 4 4 4 4 4 3 2 3 2 2 2 3 4 4 3 3 3 3 3 3 3 3 4 4
2 4 2 5 5 4 0 1 3 4 3 3 4 5 2 2 3 3 4 3 2 2 2 2 2 2 2 3 3 3 3 3 3 3 3 3 3 3 3 3 3 3 3 3
4 3 4 6 5 3 4 4 2 4 3 4 6 5 3 2 1 1 1 2 2 2 2 2 2 2 2 2 3 3 3 3 2 3 3 4 4 4 4 4 3 3 3 3
4 2 3 6 6 5 5 6 5 5 7 7 7 6 7 5 4 3 2 2 2 1 0 1 2 2 2 2 2 2 3 2 2 2 3 5 4 4 4 4 3 3 3 3
3 1 2 4 4 3 5 6 5 5 5 5 5 5 5 3 3 2 3 4 3 1 1 1 1 1 2 2 3 3 3 3 2 3 4 5 4 4 5 4 4 4 3 3
1 2 1 4 5 3 5 6 5 3 3 5 6 6 3 2 3 4 4 4 3 2 1 0 1 1 3 4 4 4 4 3 3 4 4 4 5 5 5 5 4 4 4 4
4 3 2 2 2 4 6 3 2 2 2 2 3 3 4 4 4 3 3 4 2 1 1 1 2 2 3 3 3 3 3 2 3 4 4 4 5 5 4 5 5 5 5 5
6 6 3 2 2 5 6 3 1 2 3 2 3 2 2 2 3 2 0 2 3 2 2 2 2 2 3 3 3 2 2 3 3 4 5 5 5 5 5 5 6 5 5 5
4 5 4 3 3 5 6 4 2 1 3 3 2 3 2 3 1 3 2 0 0 0 1 1 2 2 3 4 2 2 3 3 5 5 5 5 5 5 6 7 6 5 5 6
2 2 4 5 4 6 6 5 2 2 5 3 2 3 3 3 5 4 3 1 1 1 1 1 1 2 3 3 2 2 3 5 6 5 4 4 4 5 6 5 5 5 5 4
5 4 5 5 4 7 4 1 3 5 3 2 2 3 4 3 2 1 2 2 1 1 2 2 2 3 3 2 2 3 5 6 5 4 3 4 4 4 4 4 4 4 4 5
4 6 5 7 7 5 3 3 3 2 2 2 2 3 4 3 2 2 2 2 2 2 2 2 2 3 4 3 2 4 6 5 4 3 4 4 4 3 3 4 4 4 4 4
3 1 3 3 6 5 3 2 2 2 2 2 2 3 3 3 3 3 3 3 3 3 3 2 2 3 5 4 4 5 5 4 4 4 4 3 3 3 2 3 4 4 5 5
5 2 2 4 5 3 4 3 3 2 2 2 2 2 3 3 3 3 3 3 3 4 3 3 3 4 6 5 5 5 4 3 4 4 5 4 3 4 3 3 4 5 5 6
4 5 5 6 6 5 7 6 4 3 3 2 1 2 1 2 2 3 3 3 3 4 4 4 4 5 6 5 5 5 4 3 4 4 4 3 3 3 3 3 3 4 5 7
Wind_Direction
19 74 227 229 209 200 200 200 223 232 221 166 183 200 211 184 170 169 175 172 168 176 183 152 134 131 120 114 116 120 118 114 112 102 96 100 102 93 88 101 121 130 132 131
33 265 242 225 211 192 182 201 260 295 237 161 183 214 211 179 182 180 175 171 171 168 157 136 121 122 129 136 134 124 122 131 134 138 142 141 134 115 111 94 108 132 132 136
195 245 245 198 204 175 225 188 205 225 335 55 125 339 248 228 174 159 163 167 164 163 161 145 133 129 127 138 144 140 135 131 126 120 108 90 71 58 57 62 106 138 141 144
233 261 230 189 226 183 232 222 191 176 122 256 171 236 263 216 194 180 170 158 161 157 151 147 143 133 143 160 152 143 145 133 125 121 123 125 128 152 193 190 165 127 145 148
272 261 142 199 236 206 221 231 200 194 162 296 240 173 270 191 196 209 196 176 170 163 157 155 153 151 159 155 146 147 146 139 132 129 137 136 127 156 157 139 132 128 150 158
251 257 188 212 254 234 187 48 30 50 81 273 234 179 256 217 206 194 188 174 163 157 156 158 154 137 128 121 133 139 141 154 151 140 141 144 148 148 141 155 174 190 188 180
324 314 294 261 5 358 74 85 33 356 1 253 246 163 243 238 195 176 172 170 161 157 154 153 147 144 136 136 145 153 154 155 165 161 163 173 169 163 166 181 193 195 198 205
268 295 290 244 173 193 176 141 158 200 226 275 347 202 261 269 138 139 149 152 146 152 159 166 167 167 163 159 155 157 167 172 178 181 191 190 178 171 178 190 197 200 205 210
188 265 287 266 186 157 149 169 178 157 220 260 285 290 341 47 91 110 122 125 146 158 164 174 171 166 169 171 174 172 170 175 187 188 188 183 186 186 196 198 195 199 206 211
174 260 290 300 21 354 159 154 94 124 179 237 262 220 212 196 166 144 141 149 158 160 162 167 168 169 177 180 181 171 173 182 198 200 200 192 191 191 197 193 197 203 209 205
73 159 311 358 121 253 29 77 111 137 159 169 227 262 226 186 175 165 168 170 165 167 175 176 181 186 180 170 167 174 197 193 201 210 216 203 207 202 187 195 206 205 209 202
42 116 273 274 276 242 172 175 147 164 232 179 183 260 282 176 170 153 157 172 173 173 185 186 182 180 175 177 191 202 213 216 216 211 211 215 214 207 200 208 215 205 204 207
75 94 33 334 331 350 338 185 163 156 144 166 182 247 300 131 134 143 147 159 163 167 162 157 152 174 201 208 213 219 222 229 229 212 213 223 221 217 217 214 216 208 203 207
105 112 176 210 236 263 277 271 210 145 174 213 217 222 264 240 182 167 163 172 167 154 167 173 182 204 217 218 216 223 241 235 229 214 210 220 221 221 220 215 206 207 204 197
96 159 233 252 257 255 266 275 248 210 199 202 218 209 229 222 197 189 177 153 118 69 71 186 206 220 228 226 231 230 236 241 232 219 218 226 226 219 213 211 207 205 205 204
76 150 326 298 280 282 286 283 265 247 223 211 202 236 240 207 149 133 136 130 119 115 98 75 347 296 263 245 246 245 242 238 217 216 229 229 221 218 212 209 204 198 199 192
121 124 48 287 301 332 281 259 230 222 215 187 212 234 207 180 175 179 169 150 155 169 144 81 313 289 273 255 244 239 240 235 228 232 235 230 220 220 218 208 197 198 198 191
162 144 147 268 340 244 252 262 182 183 251 218 197 203 188 185 179 165 154 147 152 172 212 281 295 295 294 287 272 257 250 243 241 242 239 232 226 225 220 204 205 208 198 196
173 156 151 160 240 279 289 280 207 190 259 267 185 193 188 133 72 12 312 158 174 199 230 256 271 279 305 303 295 298 278 262 263 258 246 237 228 222 218 213 216 215 199 201
131 130 144 168 203 239 254 277 296 101 267 280 164 162 148 102 117 259 274 184 115 302 288 312 325 340 326 312 311 310 283 273 266 263 256 243 229 221 220 220 221 216 204 206
124 135 177 197 226 261 265 288 42 157 244 257 175 170 161 181 210 227 229 215 207 273 316 338 356 337 308 310 326 311 293 273 267 268 269 258 240 231 228 221 217 210 204 199
181 179 194 179 208 252 262 117 172 220 243 226 186 178 174 182 190 203 208 232 250 301 324 333 330 318 316 318 322 302 287 283 282 274 271 263 250 244 247 219 215 206 196 196
194 193 189 193 217 241 229 202 220 202 221 251 241 211 178 171 197 223 239 254 258 258 275 289 291 305 310 305 292 288 288 295 289 277 270 265 255 244 227 214 209 205 202 204
272 206 179 236 255 262 261 263 270 246 245 266 263 214 180 196 225 240 248 261 268 268 273 283 296 300 298 296 290 284 288 288 281 272 271 263 251 250 234 221 210 206 207 210
237 214 213 248 263 303 284 267 258 274 279 294 307 250 200 196 230 241 256 265 270 276 276 274 271 276 283 292 299 306 304 289 282 282 279 267 249 233 226 228 225 219 221 215
219 203 206 235 232 228 257 257 245 241 249 243 267 297 283 213 234 251 265 266 270 274 273 278 279 279 284 292 297 299 298 290 280 283 281 271 250 239 230 234 273 253 233 231
Height
1519 1524 1528 1525 1523 1523 1525 1528 1531 1527 1520 1523 1527 1528 1525 1525 1526 1528 1529 1529 1531 1532 1533 1534 1535 1535 1536 1536 1536 1536 1537 1537 1537 1537 1537 1537 1537 1538 1539 1539 1540 1541 1542 1543
1524 1527 1519 1517 1518 1520 1523 1528 1529 1525 1520 1522 1527 1527 1524 1524 1525 1525 1526 1528 1529 1531 1532 1533 1534 1534 1535 1535 1536 1536 1536 1536 1536 1536 1537 1537 1538 1538 1538 1539 1540 1541 1542 1543
1526 1521 1514 1516 1519 1521 1524 1527 1527 1527 1523 1522 1527 1532 1529 1525 1525 1525 1525 1526 1527 1529 1530 1531 1533 1534 1534 1534 1535 1535 1536 1536 1536 1536 1537 1537 1538 1538 1538 1539 1539 1541 1541 1542
1521 1516 1515 1517 1519 1520 1526 1519 1520 1523 1531 1537 1531 1547 1534 1527 1526 1525 1525 1525 1526 1528 1529 1530 1531 1532 1533 1534 1535 1535 1535 1536 1536 1536 1536 1536 1537 1537 1538 1538 1539 1540 1541 1542
1521 1516 1516 1519 1517 1516 1519 1515 1518 1521 1528 1536 1534 1543 1538 1528 1528 1525 1524 1524 1525 1526 1528 1529 1530 1531 1533 1533 1534 1535 1535 1535 1536 1536 1536 1536 1536 1537 1537 1538 1538 1539 1540 1541
1517 1514 1514 1515 1513 1513 1513 1518 1521 1527 1534 1546 1536 1541 1540 1530 1524 1522 1522 1523 1524 1525 1527 1528 1530 1531 1532 1533 1533 1534 1534 1535 1535 1535 1535 1535 1536 1536 1536 1537 1537 1538 1539 1540
1522 1517 1513 1512 1515 1515 1518 1532 1546 1547 1552 1548 1532 1536 1535 1521 1517 1517 1519 1521 1523 1525 1526 1527 1528 1530 1531 1532 1532 1533 1533 1534 1534 1534 1535 1535 1535 1535 1535 1536 1536 1537 1538 1539
1532 1531 1517 1513 1516 1520 1520 1529 1547 1554 1554 1546 1534 1537 1529 1517 1516 1516 1518 1520 1522 1524 1525 1526 1527 1528 1529 1530 1531 1532 1532 1533 1533 1534 1534 1534 1534 1535 1535 1535 1535 1536 1536 1537
1531 1530 1515 1512 1511 1515 1521 1527 1527 1540 1540 1546 1542 1533 1525 1519 1519 1519 1520 1521 1522 1523 1525 1526 1526 1527 1528 1529 1530 1531 1531 1532 1532 1532 1533 1533 1533 1533 1534 1534 1534 1534 1535 1536
1524 1529 1518 1513 1512 1512 1515 1520 1532 1539 1547 1552 1543 1538 1535 1526 1523 1521 1521 1521 1522 1523 1524 1525 1525 1526 1527 1528 1529 1530 1530 1531 1531 1532 1532 1532 1532 1532 1532 1533 1532 1533 1533 1534
1523 1529 1526 1520 1520 1521 1519 1522 1528 1537 1541 1549 1551 1543 1521 1521 1520 1520 1520 1520 1521 1522 1523 1523 1524 1525 1526 1527 1528 1528 1529 1529 1529 1530 1530 1530 1531 1531 1531 1531 1531 1531 1532 1532
1526 1532 1534 1526 1518 1515 1517 1521 1528 1539 1540 1541 1546 1542 1516 1517 1517 1518 1519 1520 1521 1521 1522 1522 1523 1524 1525 1525 1526 1526 1527 1527 1527 1527 1528 1528 1529 1529 1529 1529 1529 1529 1530 1530
1526 1533 1540 1535 1529 1521 1519 1518 1522 1529 1537 1543 1546 1538 1517 1517 1517 1518 1518 1519 1520 1520 1521 1522 1522 1523 1524 1524 1525 1525 1525 1525 1525 1525 1526 1526 1526 1526 1526 1527 1527 1527 1528 1528
1524 1533 1538 1539 1534 1527 1524 1520 1519 1527 1537 1539 1535 1529 1521 1519 1518 1517 1517 1518 1519 1520 1520 1521 1521 1522 1522 1522 1523 1523 1523 1523 1523 1523 1523 1523 1523 1524 1524 1524 1525 1525 1526 1526
1525 1532 1530 1528 1523 1522 1521 1520 1518 1521 1525 1530 1527 1525 1520 1518 1517 1516 1517 1517 1518 1519 1519 1519 1519 1520 1520 1520 1521 1521 1521 1521 1521 1520 1520 1520 1520 1521 1521 1521 1522 1522 1523 1524
1526 1530 1529 1527 1521 1520 1521 1518 1517 1517 1518 1520 1521 1522 1515 1515 1515 1516 1516 1516 1517 1517 1517 1518 1518 1518 1518 1518 1518 1518 1518 1518 1518 1517 1517 1517 1517 1517 1517 1518 1519 1519 1520 1521
1529 1531 1534 1535 1525 1522 1526 1517 1516 1516 1514 1516 1520 1518 1514 1515 1515 1515 1515 1515 1515 1516 1515 1515 1515 1515 1515 1515 1515 1514 1514 1514 1514 1514 1513 1513 1514 1514 1514 1514 1515 1516 1516 1517
1527 1531 1537 1537 1532 1535 1522 1511 1510 1512 1512 1511 1512 1512 1511 1512 1512 1513 1513 1514 1514 1514 1514 1513 1513 1512 1512 1511 1511 1511 1510 1510 1510 1510 1509 1510 1510 1510 1510 1510 1511 1512 1513 1513
1520 1527 1535 1538 1537 1529 1518 1510 1510 1511 1513 1510 1510 1510 1510 1510 1511 1512 1513 1512 1512 1512 1512 1511 1510 1510 1509 1508 1507 1507 1506 1506 1506 1505 1505 1505 1505 1505 1505 1506 1506 1507 1508 1509
1519 1523 1532 1536 1535 1532 1518 1508 1506 1510 1515 1509 1508 1508 1509 1509 1514 1513 1511 1511 1510 1510 1509 1509 1508 1507 1506 1505 1504 1503 1502 1502 1501 1501 1500 1501 1501 1501 1501 1501 1502 1503 1504 1504
1524 1527 1532 1534 1533 1524 1511 1507 1507 1518 1515 1508 1507 1507 1507 1508 1509 1509 1509 1508 1508 1507 1507 1506 1505 1503 1503 1502 1500 1499 1498 1498 1497 1497 1496 1496 1496 1496 1496 1496 1497 1498 1499 1500
1522 1526 1529 1531 1533 1525 1508 1506 1510 1510 1506 1505 1505 1505 1504 1504 1505 1505 1505 1505 1505 1504 1503 1502 1501 1500 1499 1498 1497 1495 1494 1494 1493 1492 1491 1490 1490 1490 1491 1491 1492 1493 1494 1495
1517 1517 1518 1519 1518 1509 1506 1505 1505 1505 1504 1504 1503 1502 1502 1502 1502 1502 1502 1502 1501 1500 1500 1499 1498 1496 1495 1495 1494 1492 1490 1490 1488 1487 1486 1486 1485 1485 1485 1486 1486 1487 1489 1489
1512 1510 1512 1512 1508 1505 1504 1503 1503 1503 1502 1501 1501 1499 1499 1499 1499 1499 1499 1498 1497 1497 1496 1495 1494 1492 1491 1490 1489 1488 1486 1485 1484 1483 1481 1481 1480 1480 1480 1481 1482 1483 1483 1484
1510 1509 1509 1509 1505 1503 1502 1501 1501 1501 1500 1499 1498 1497 1496 1496 1496 1495 1495 1494 1493 1493 1492 1491 1490 1488 1486 1485 1484 1483 1482 1480 1479 1477 1476 1476 1476 1476 1476 1476 1477 1478 1479 1480
1506 1506 1508 1506 1502 1502 1500 1499 1499 1498 1496 1495 1495 1494 1493 1493 1492 1491 1491 1490 1490 1489 1488 1487 1485 1484 1482 1481 1479 1478 1477 1475 1474 1472 1471 1470 1470 1471 1471 1471 1472 1472 1474 1475